Location: D�derode
(51.8092°N, 10.1065°E)
Time: 14:31:58
(UTC+00:00)

USA 238 - Visible Passes

Search period start: 12 April 2021 00:00
Search period end: 22 April 2021 00:00
Orbit: 994 x 1218 km, 63.4° (Epoch: 01 April)

Date Brightness Start Highest point End Pass type
(mag) Time Alt. Az. Time Alt. Az. Time Alt. Az.
12 Apr 4.6 19:26:50 10° NW 19:33:46 51° WSW 19:40:59 10° SSE visible
12 Apr 6.1 21:20:40 10° W 21:23:15 12° WSW 21:25:51 10° WSW visible
13 Apr 4.2 18:41:54 10° NW 18:49:04 70° SW 18:56:33 10° SSE visible
13 Apr 5.8 20:34:07 10° WNW 20:38:59 19° WSW 20:43:59 10° SSW visible
14 Apr 5.4 19:48:35 10° WNW 19:54:36 29° WSW 20:00:49 10° S visible
15 Apr 5.0 19:03:25 10° NW 19:10:06 41° WSW 19:17:02 10° S visible
16 Apr 6.1 20:11:22 10° WNW 20:15:08 15° WSW 20:18:58 10° SW visible
17 Apr 5.9 19:25:25 10° WNW 19:30:50 23° WSW 19:36:23 10° SSW visible
19 Apr 6.5 19:49:36 10° W 19:51:14 11° WSW 19:52:53 10° WSW visible
20 Apr 6.2 19:02:27 10° WNW 19:07:00 18° WSW 19:11:40 10° SW visible
